When you browse on this site, cookies collect data to enhance your experience and personalize the content and advertising you see.
Visit our Privacy Policy to learn more. By continuing to use the site, you agree to this use of cookies and data.
  • En España
  • Lista de países
  • Para 7 días
  • Temperatura del agua
  • El tiempo en el mapa
  • Informadores
  • user-avatar
    Iniciar sesión

    Tiempo cada hora Maidstone

    Hoy, 19 Enero, Domingo

    Tiempo Temperatura Precipitaciones Viento Presión Humedad
    00:00 +1°C° 0 mm 4 mps 774 mmHg 85%
    01:00 0°C° 0 mm 4 mps 774 mmHg 86%
    02:00 0°C° 0 mm 4 mps 775 mmHg 86%
    03:00 0°C° 0 mm 4 mps 775 mmHg 87%
    04:00 0°C° 0 mm 4 mps 776 mmHg 86%
    05:00 0°C° 0 mm 4 mps 776 mmHg 86%
    06:00 0°C° 0 mm 4 mps 777 mmHg 86%
    07:00 0°C° 0 mm 4 mps 778 mmHg 86%
    08:00 0°C° 0 mm 4 mps 778 mmHg 86%
    09:00 0°C° 0 mm 4 mps 779 mmHg 85%
    10:00 +3°C° 0 mm 4 mps 780 mmHg 82%
    11:00 +4°C° 0 mm 4 mps 780 mmHg 79%
    12:00 +5°C° 0 mm 5 mps 781 mmHg 76%
    13:00 +5°C° 0 mm 4 mps 781 mmHg 77%
    14:00 +5°C° 0 mm 4 mps 781 mmHg 78%
    15:00 +5°C° 0 mm 4 mps 781 mmHg 79%
    16:00 +4°C° 0 mm 3 mps 782 mmHg 83%
    17:00 +3°C° 0 mm 3 mps 782 mmHg 86%
    18:00 +2°C° 0 mm 3 mps 782 mmHg 90%
    19:00 +2°C° 0 mm 3 mps 782 mmHg 89%
    20:00 +2°C° 0 mm 2 mps 783 mmHg 89%
    21:00 +2°C° 0 mm 2 mps 783 mmHg 88%
    22:00 +2°C° 0 mm 2 mps 783 mmHg 87%
    23:00 +3°C° 0 mm 1 mps 784 mmHg 85%

    Mañana, 20 Enero, Lunes

    Tiempo Temperatura Precipitaciones Viento Presión Humedad
    00:00 +3°C° 0 mm 1 mps 784 mmHg 83%
    01:00 +2°C° 0 mm 1 mps 784 mmHg 81%
    02:00 +2°C° 0 mm 1 mps 783 mmHg 79%
    03:00 +1°C° 0 mm 2 mps 783 mmHg 77%
    04:00 +2°C° 0 mm 1 mps 783 mmHg 76%
    05:00 +2°C° 0 mm 1 mps 783 mmHg 75%
    06:00 +2°C° 0 mm 1 mps 783 mmHg 73%
    07:00 +2°C° 0 mm 1 mps 783 mmHg 72%
    08:00 +3°C° 0 mm 1 mps 783 mmHg 72%
    09:00 +3°C° 0 mm 1 mps 783 mmHg 71%
    10:00 +4°C° 0 mm 1 mps 783 mmHg 67%
    11:00 +5°C° 0 mm 1 mps 783 mmHg 63%
    12:00 +7°C° 0 mm 1 mps 782 mmHg 60%
    13:00 +7°C° 0 mm 1 mps 782 mmHg 62%
    14:00 +7°C° 0 mm 1 mps 782 mmHg 64%
    15:00 +7°C° 0 mm 1 mps 782 mmHg 67%
    16:00 +5°C° 0 mm 1 mps 781 mmHg 68%
    17:00 +4°C° 0 mm 1 mps 781 mmHg 69%
    18:00 +3°C° 0 mm 1 mps 781 mmHg 71%
    19:00 +3°C° 0 mm 1 mps 781 mmHg 71%
    20:00 +2°C° 0 mm 0 mps 781 mmHg 70%
    21:00 +2°C° 0 mm 0 mps 781 mmHg 70%
    22:00 +2°C° 0 mm 0 mps 780 mmHg 70%
    23:00 +2°C° 0 mm 0 mps 780 mmHg 70%

    Pasado mañana, 21 Enero, Martes

    Tiempo Temperatura Precipitaciones Viento Presión Humedad
    00:00 +2°C° 0 mm 0 mps 780 mmHg 71%
    01:00 +2°C° 0 mm 0 mps 780 mmHg 71%
    02:00 +3°C° 0 mm 1 mps 779 mmHg 72%
    03:00 +3°C° 0 mm 1 mps 779 mmHg 73%
    04:00 +3°C° 0 mm 1 mps 779 mmHg 75%
    05:00 +3°C° 0 mm 1 mps 779 mmHg 76%
    06:00 +2°C° 0 mm 1 mps 778 mmHg 78%
    07:00 +3°C° 0 mm 1 mps 778 mmHg 77%
    08:00 +2°C° 0 mm 0 mps 778 mmHg 76%
    09:00 +2°C° 0 mm 0 mps 779 mmHg 75%
    10:00 +5°C° 0 mm 1 mps 779 mmHg 71%
    11:00 +6°C° 0 mm 1 mps 779 mmHg 66%
    12:00 +7°C° 0 mm 1 mps 779 mmHg 62%
    13:00 +7°C° 0 mm 1 mps 778 mmHg 64%
    14:00 +7°C° 0 mm 1 mps 778 mmHg 65%
    15:00 +7°C° 0 mm 1 mps 778 mmHg 67%
    16:00 +5°C° 0 mm 1 mps 778 mmHg 69%
    17:00 +4°C° 0 mm 1 mps 778 mmHg 70%
    18:00 +3°C° 0 mm 1 mps 777 mmHg 72%
    19:00 +3°C° 0 mm 1 mps 778 mmHg 71%
    20:00 +3°C° 0 mm 1 mps 778 mmHg 70%
    21:00 +2°C° 0 mm 0 mps 778 mmHg 70%
    22:00 +3°C° 0 mm 1 mps 778 mmHg 70%
    23:00 +3°C° 0 mm 1 mps 778 mmHg 71%

    22 Enero, Miércoles

    Tiempo Temperatura Precipitaciones Viento Presión Humedad
    00:00 +3°C° 0 mm 1 mps 778 mmHg 71%
    01:00 +2°C° 0 mm 1 mps 778 mmHg 77%
    02:00 +2°C° 0 mm 1 mps 778 mmHg 82%
    03:00 +1°C° 0 mm 2 mps 778 mmHg 88%
    04:00 +1°C° 0 mm 2 mps 777 mmHg 90%
    05:00 +1°C° 0 mm 2 mps 777 mmHg 92%
    06:00 +1°C° 0 mm 2 mps 777 mmHg 95%
    07:00 +2°C° 0 mm 2 mps 777 mmHg 95%
    08:00 +3°C° 0 mm 1 mps 777 mmHg 94%
    09:00 +4°C° 0 mm 1 mps 777 mmHg 94%
    10:00 +4°C° 0 mm 2 mps 777 mmHg 91%
    11:00 +4°C° 0 mm 3 mps 777 mmHg 88%
    12:00 +5°C° 0 mm 4 mps 777 mmHg 86%
    13:00 +5°C° 0 mm 4 mps 777 mmHg 87%
    14:00 +5°C° 0 mm 4 mps 777 mmHg 89%
    15:00 +5°C° 0 mm 3 mps 776 mmHg 91%
    16:00 +5°C° 0 mm 3 mps 776 mmHg 93%
    17:00 +4°C° 0 mm 3 mps 776 mmHg 94%
    18:00 +5°C° 0 mm 2 mps 776 mmHg 96%
    19:00 +5°C° 0 mm 2 mps 776 mmHg 96%
    20:00 +5°C° 0 mm 2 mps 776 mmHg 97%
    21:00 +4°C° 0 mm 2 mps 776 mmHg 97%
    22:00 +5°C° 0 mm 2 mps 776 mmHg 97%
    23:00 +5°C° 0 mm 2 mps 776 mmHg 97%

    23 Enero, Jueves

    Tiempo Temperatura Precipitaciones Viento Presión Humedad
    00:00 +5°C° 0 mm 2 mps 776 mmHg 96%
    01:00 +5°C° 0 mm 2 mps 775 mmHg 96%
    02:00 +5°C° 0 mm 2 mps 775 mmHg 96%
    03:00 +5°C° 0 mm 2 mps 774 mmHg 96%
    04:00 +5°C° 0 mm 2 mps 774 mmHg 96%
    05:00 +3°C° 0 mm 3 mps 773 mmHg 96%
    06:00 +3°C° 0 mm 3 mps 773 mmHg 96%
    07:00 +3°C° 0 mm 3 mps 773 mmHg 95%
    08:00 +4°C° 0 mm 3 mps 773 mmHg 93%
    09:00 +4°C° 0 mm 3 mps 773 mmHg 92%
    10:00 +4°C° 0 mm 4 mps 772 mmHg 89%
    11:00 +5°C° 0 mm 4 mps 772 mmHg 85%
    12:00 +5°C° 0 mm 5 mps 771 mmHg 82%
    13:00 +5°C° 0 mm 5 mps 771 mmHg 81%
    14:00 +5°C° 0 mm 5 mps 770 mmHg 80%
    15:00 +3°C° 0 mm 6 mps 769 mmHg 79%
    16:00 +3°C° 0 mm 5 mps 769 mmHg 82%
    17:00 +2°C° 0 mm 5 mps 769 mmHg 86%
    18:00 +1°C° 0 mm 4 mps 768 mmHg 90%
    19:00 +1°C° 0 mm 4 mps 768 mmHg 90%
    20:00 +1°C° 0 mm 3 mps 768 mmHg 89%
    21:00 +1°C° 0 mm 3 mps 768 mmHg 89%
    22:00 +1°C° 0 mm 3 mps 767 mmHg 89%
    23:00 +1°C° 0 mm 3 mps 767 mmHg 89%

    24 Enero, Viernes

    Tiempo Temperatura Precipitaciones Viento Presión Humedad
    00:00 +1°C° 0 mm 2 mps 767 mmHg 89%
    01:00 +1°C° 0 mm 2 mps 766 mmHg 89%
    02:00 +1°C° 0 mm 2 mps 766 mmHg 89%
    03:00 +1°C° 0 mm 2 mps 765 mmHg 89%
    04:00 +1°C° 0 mm 2 mps 765 mmHg 90%
    05:00 +1°C° 0 mm 2 mps 765 mmHg 90%
    06:00 +1°C° 0 mm 2 mps 765 mmHg 91%
    07:00 +2°C° 0 mm 2 mps 764 mmHg 91%
    08:00 +2°C° 0 mm 2 mps 764 mmHg 90%
    09:00 +3°C° 0 mm 2 mps 764 mmHg 90%
    10:00 +3°C° 0 mm 3 mps 764 mmHg 87%
    11:00 +5°C° 0 mm 3 mps 763 mmHg 84%
    12:00 +7°C° 0 mm 3 mps 763 mmHg 81%
    13:00 +7°C° 0 mm 3 mps 762 mmHg 83%
    14:00 +8°C° 0 mm 3 mps 762 mmHg 85%
    15:00 +8°C° 0 mm 3 mps 761 mmHg 87%
    16:00 +7°C° 0 mm 3 mps 761 mmHg 89%
    17:00 +5°C° 0 mm 3 mps 761 mmHg 92%
    18:00 +4°C° 0 mm 3 mps 760 mmHg 94%
    19:00 +5°C° 0 mm 3 mps 760 mmHg 94%
    20:00 +5°C° 0 mm 4 mps 760 mmHg 94%
    21:00 +5°C° 0 mm 4 mps 760 mmHg 95%
    22:00 +5°C° 0 mm 4 mps 759 mmHg 94%
    23:00 +6°C° 0 mm 4 mps 759 mmHg 94%
    Mostrar más